GW4331 Weather Reports


time (UTC)temp
C
wind
direction
speed
KPH
gust
KPH
rain 1hr
cm
rain 24hr
cm
rain mn
cm
humidity
%
barometer
mb
20260508060023 7 110 0.0 0.0 0.00 0.20 0.00 93 1012.2
20260508054605 8 110 0.0 0.0 0.00 0.20 0.00 93 1012.3
20260508053035 8 110 0.0 0.0 0.00 0.20 0.00 93 1012.4
20260508051553 8 110 0.0 0.0 0.00 0.20 0.00 93 1012.2
20260508050024 8 110 0.0 0.0 0.00 0.66 0.00 92 1012.0
20260508044559 8 110 0.0 0.0 0.00 0.66 0.00 92 1011.9
20260508043023 8 108 0.0 0.0 0.00 0.66 0.00 91 1011.8
20260508041543 9 143 0.0 0.0 0.00 0.66 0.00 91 1011.7
20260508040021 9 143 0.0 0.0 0.00 0.66 0.66 91 1011.5
20260508034554 9 137 0.0 0.0 0.00 0.66 0.66 91 1011.4
20260508033022 9 138 0.0 0.0 0.00 0.66 0.66 91 1011.3
20260508031558 9 132 0.0 0.0 0.00 0.66 0.66 90 1011.2
20260508030029 9 132 0.0 0.0 0.00 0.66 0.66 90 1011.3
20260508024551 9 132 0.0 0.0 0.00 0.66 0.66 89 1011.2
20260508023026 9 132 0.0 0.0 0.00 0.66 0.66 89 1011.2
20260508021549 9 132 0.0 0.0 0.00 0.66 0.66 88 1011.2
20260508020105 9 132 0.0 0.0 0.00 0.66 0.66 87 1011.1
20260508014544 10 132 0.0 0.0 0.00 0.66 0.66 86 1010.8
20260508013100 10 132 0.0 0.0 0.00 0.66 0.66 85 1010.8
20260508011525 10 132 0.0 0.0 0.00 0.66 0.66 84 1010.6
20260508010039 10 132 0.0 0.0 0.00 0.66 0.66 84 1010.4
20260508004513 10 132 0.0 0.0 0.00 0.66 0.66 82 1010.3
20260508003053 11 132 0.0 0.0 0.00 0.66 0.66 80 1010.1
20260508001502 11 132 0.0 0.0 0.00 0.66 0.66 78 1010.0
20260508000034 12 132 0.0 0.0 0.00 0.66 0.66 76 1009.8
20260507234603 12 132 0.0 0.0 0.00 0.66 0.66 74 1009.7
20260507233036 12 113 0.0 0.0 0.00 0.66 0.66 72 1009.5
20260507231553 13 190 0.0 0.0 0.00 0.66 0.66 72 1009.4
20260507230018 13 189 0.0 1.6 0.00 0.66 0.66 71 1009.1
20260507224605 13 152 0.0 3.2 0.00 0.66 0.66 70 1009.1
20260507223016 13 120 0.0 1.6 0.00 0.66 0.66 68 1009.0
20260507221547 14 153 0.0 3.2 0.00 0.66 0.66 68 1009.0
20260507220014 14 154 0.0 3.2 0.00 0.66 0.66 67 1008.9
20260507214541 14 143 0.0 1.6 0.00 0.66 0.66 67 1008.8
20260507213013 14 151 0.0 3.2 0.00 0.66 0.66 65 1008.8
20260507211536 14 313 0.0 4.8 0.00 0.66 0.66 64 1009.0
20260507210053 15 158 0.0 4.8 0.00 0.66 0.66 62 1008.9
20260507204522 15 150 0.0 3.2 0.00 0.66 0.66 63 1009.0
20260507203042 15 192 0.0 0.0 0.00 0.66 0.66 60 1009.0
20260507201511 15 179 0.0 1.6 0.00 0.66 0.66 59 1009.1
20260507200051 15 155 0.0 1.6 0.00 0.66 0.66 61 1009.0
20260507194518 15 202 0.0 3.2 0.00 0.66 0.66 60 1009.5
20260507193051 14 241 0.0 3.2 0.00 0.66 0.66 61 1009.4
20260507191523 14 141 0.0 1.6 0.00 0.66 0.66 62 1009.5
20260507190100 14 152 0.0 4.8 0.00 0.66 0.66 63 1009.7
20260507184532 13 149 0.0 3.2 0.00 0.66 0.66 67 1010.1
20260507183101 13 141 0.0 0.0 0.00 0.66 0.66 64 1010.3
20260507181532 13 156 0.0 0.0 0.00 0.66 0.66 64 1010.3
20260507180008 13 176 0.0 0.0 0.00 0.66 0.66 65 1010.5
20260507174540 13 212 0.0 0.0 0.00 0.66 0.66 68 1010.6
20260507173011 13 206 0.0 1.6 0.00 0.66 0.66 66 1010.7
20260507171534 13 11 0.0 3.2 0.00 0.66 0.66 71 1010.9
20260507170005 12 332 0.0 0.0 0.05 0.66 0.66 76 1010.9
20260507164542 12 339 0.0 0.0 0.05 0.66 0.66 81 1011.7
20260507163020 11 340 0.0 0.0 0.08 0.66 0.66 85 1011.9
20260507161549 11 339 0.0 0.0 0.08 0.66 0.66 81 1011.5
20260507160022 11 340 0.0 0.0 0.03 0.61 0.61 79 1011.7
20260507154602 11 340 0.0 0.0 0.03 0.61 0.61 80 1011.7
20260507153036 12 335 0.0 0.0 0.00 0.58 0.58 73 1011.9
20260507151553 12 340 0.0 0.0 0.00 0.58 0.58 70 1011.8
20260507150022 12 285 0.0 1.6 0.00 0.76 0.58 71 1011.7
20260507144555 12 248 0.0 1.6 0.00 0.76 0.58 74 1012.1
20260507143027 12 268 0.0 3.2 0.00 0.76 0.58 74 1012.3
20260507141547 12 291 0.0 1.6 0.00 0.76 0.58 75 1012.4
20260507140002 12 32 0.0 6.4 0.00 0.84 0.58 75 1012.5
20260507134538 12 271 0.0 3.2 0.00 0.84 0.58 77 1012.5
20260507133009 12 315 0.0 1.6 0.00 0.84 0.58 80 1012.3
20260507131548 12 72 0.0 3.2 0.00 0.84 0.58 80 1012.4
20260507130016 12 267 0.0 1.6 0.00 0.86 0.58 81 1012.3
20260507124536 12 327 0.0 3.2 0.00 0.86 0.58 78 1012.3
20260507123007 12 67 0.0 1.6 0.00 0.86 0.58 84 1012.2
20260507121545 12 263 0.0 3.2 0.00 0.86 0.58 87 1011.9
20260507120014 12 272 0.0 0.0 0.00 0.86 0.58 89 1011.7
20260507114553 11 274 0.0 1.6 0.00 0.86 0.58 91 1011.8
20260507113024 11 260 0.0 1.6 0.00 0.86 0.58 92 1011.5
20260507111547 11 227 0.0 0.0 0.03 0.86 0.58 92 1011.6
20260507110104 11 228 0.0 1.6 0.03 0.86 0.58 93 1011.3
20260507104536 11 303 0.0 1.6 0.05 0.86 0.58 92 1011.6
20260507103050 11 303 0.0 0.0 0.05 0.86 0.58 91 1011.4
20260507101524 11 295 0.0 0.0 0.03 0.84 0.56 91 1011.0
20260507100050 11 295 0.0 0.0 0.03 0.84 0.56 91 1011.1
20260507094521 11 295 0.0 0.0 0.00 0.81 0.53 92 1011.2
20260507093041 11 296 0.0 1.6 0.00 0.81 0.53 92 1011.1
20260507091528 11 274 0.0 1.6 0.00 0.81 0.53 92 1010.9
20260507090058 12 274 0.0 0.0 0.00 0.81 0.53 92 1010.8
20260507084556 12 274 0.0 1.6 0.00 0.81 0.53 91 1010.6
20260507083025 12 269 0.0 1.6 0.00 0.81 0.53 91 1010.7
20260507081550 12 44 0.0 1.6 0.00 0.81 0.53 92 1010.9
20260507080006 12 68 0.0 0.0 0.00 0.81 0.53 93 1010.6
20260507074539 12 65 0.0 1.6 0.00 0.81 0.53 93 1010.2
20260507073100 12 45 0.0 1.6 0.00 0.81 0.53 93 1010.1
20260507071518 12 315 0.0 1.6 0.00 0.81 0.53 93 1010.1
20260507070134 12 67 0.0 1.6 0.00 0.81 0.53 93 1010.2
20260507064509 12 101 0.0 3.2 0.00 0.81 0.53 93 1009.9
20260507063038 12 53 0.0 3.2 0.03 0.81 0.53 92 1010.1
20260507061552 13 7 0.0 8.0 0.05 0.81 0.53 92 1010.0